When you browse on this site, cookies collect data to enhance your experience and personalize the content and advertising you see.
Visit our Privacy Policy to learn more. By continuing to use the site, you agree to this use of cookies and data.
  • în România
  • Lista ţărilor
  • Pe 7 zile
  • Temperatura apei
  • Hartă satelitară
  • Meteo pe hartă
  • Widget-uri
  • user-avatar
    Intrare

    Meteo pe oră la Makowice

    Astăzi, 25 Mai, Sâmbătă

    Timp Temperatura Precipitaţii Vânt Presiune Umiditate
    00:00 +12°C° 0 mm 2 m/s 739 mmHg 75%
    01:00 +12°C° 0 mm 2 m/s 739 mmHg 76%
    02:00 +12°C° 0 mm 2 m/s 739 mmHg 78%
    03:00 +12°C° 0 mm 2 m/s 739 mmHg 80%
    04:00 +12°C° 0 mm 2 m/s 739 mmHg 82%
    05:00 +13°C° 0 mm 2 m/s 739 mmHg 79%
    06:00 +15°C° 0 mm 2 m/s 740 mmHg 76%
    07:00 +17°C° 0 mm 2 m/s 740 mmHg 74%
    08:00 +18°C° 0.4 mm 2 m/s 740 mmHg 72%
    09:00 +19°C° 0.4 mm 2 m/s 740 mmHg 71%
    10:00 +20°C° 0.4 mm 3 m/s 740 mmHg 69%
    11:00 +20°C° 0.8 mm 3 m/s 740 mmHg 69%
    12:00 +20°C° 0.8 mm 3 m/s 740 mmHg 70%
    13:00 +20°C° 0.8 mm 3 m/s 740 mmHg 70%
    14:00 +20°C° 0.6 mm 3 m/s 740 mmHg 71%
    15:00 +20°C° 0.6 mm 2 m/s 740 mmHg 73%
    16:00 +20°C° 0.6 mm 2 m/s 740 mmHg 74%
    17:00 +19°C° 0.3 mm 2 m/s 740 mmHg 78%
    18:00 +18°C° 0.3 mm 2 m/s 740 mmHg 82%
    19:00 +18°C° 0.3 mm 1 m/s 740 mmHg 86%
    20:00 +15°C° 0 mm 2 m/s 740 mmHg 87%
    21:00 +14°C° 0 mm 2 m/s 740 mmHg 89%
    22:00 +13°C° 0 mm 2 m/s 741 mmHg 90%
    23:00 +12°C° 0 mm 2 m/s 741 mmHg 91%

    Mâine, 26 Mai, Duminică

    Timp Temperatura Precipitaţii Vânt Presiune Umiditate
    00:00 +10°C° 0 mm 2 m/s 741 mmHg 92%
    01:00 +9°C° 0 mm 2 m/s 741 mmHg 93%
    02:00 +10°C° 0 mm 1 m/s 741 mmHg 93%
    03:00 +10°C° 0 mm 1 m/s 741 mmHg 93%
    04:00 +9°C° 0 mm 1 m/s 741 mmHg 93%
    05:00 +11°C° 0 mm 1 m/s 741 mmHg 90%
    06:00 +13°C° 0 mm 1 m/s 741 mmHg 86%
    07:00 +15°C° 0 mm 1 m/s 741 mmHg 82%
    08:00 +16°C° 0 mm 1 m/s 741 mmHg 75%
    09:00 +18°C° 0 mm 2 m/s 741 mmHg 68%
    10:00 +19°C° 0 mm 2 m/s 741 mmHg 60%
    11:00 +20°C° 0 mm 3 m/s 740 mmHg 59%
    12:00 +21°C° 0 mm 3 m/s 740 mmHg 57%
    13:00 +22°C° 0 mm 3 m/s 739 mmHg 56%
    14:00 +22°C° 0.1 mm 3 m/s 739 mmHg 58%
    15:00 +22°C° 0.1 mm 3 m/s 739 mmHg 60%
    16:00 +22°C° 0.1 mm 4 m/s 739 mmHg 62%
    17:00 +21°C° 0.2 mm 3 m/s 739 mmHg 68%
    18:00 +19°C° 0.2 mm 2 m/s 738 mmHg 74%
    19:00 +19°C° 0.2 mm 1 m/s 738 mmHg 80%
    20:00 +18°C° 0 mm 1 m/s 739 mmHg 83%
    21:00 +16°C° 0 mm 2 m/s 739 mmHg 85%
    22:00 +14°C° 0 mm 2 m/s 739 mmHg 87%
    23:00 +14°C° 0 mm 2 m/s 739 mmHg 88%

    Poimâine, 27 Mai, Luni

    Timp Temperatura Precipitaţii Vânt Presiune Umiditate
    00:00 +14°C° 0 mm 2 m/s 738 mmHg 89%
    01:00 +13°C° 0 mm 2 m/s 738 mmHg 90%
    02:00 +13°C° 0 mm 2 m/s 738 mmHg 90%
    03:00 +12°C° 0 mm 3 m/s 738 mmHg 91%
    04:00 +12°C° 0 mm 3 m/s 737 mmHg 91%
    05:00 +14°C° 0 mm 3 m/s 738 mmHg 86%
    06:00 +15°C° 0 mm 4 m/s 738 mmHg 82%
    07:00 +18°C° 0 mm 4 m/s 738 mmHg 77%
    08:00 +19°C° 0 mm 4 m/s 738 mmHg 70%
    09:00 +21°C° 0 mm 5 m/s 737 mmHg 64%
    10:00 +22°C° 0 mm 5 m/s 737 mmHg 57%
    11:00 +23°C° 0 mm 5 m/s 737 mmHg 56%
    12:00 +23°C° 0 mm 5 m/s 737 mmHg 55%
    13:00 +25°C° 0 mm 5 m/s 737 mmHg 54%
    14:00 +25°C° 0.1 mm 5 m/s 736 mmHg 56%
    15:00 +25°C° 0.1 mm 4 m/s 736 mmHg 59%
    16:00 +25°C° 0.1 mm 4 m/s 736 mmHg 62%
    17:00 +22°C° 0.4 mm 3 m/s 736 mmHg 70%
    18:00 +20°C° 0.4 mm 2 m/s 736 mmHg 78%
    19:00 +19°C° 0.4 mm 2 m/s 736 mmHg 86%
    20:00 +19°C° 0.2 mm 1 m/s 736 mmHg 88%
    21:00 +15°C° 0.2 mm 0 m/s 736 mmHg 90%
    22:00 +14°C° 0.2 mm 0 m/s 736 mmHg 92%
    23:00 +14°C° 0.1 mm 0 m/s 736 mmHg 93%

    28 Mai, Marţi

    Timp Temperatura Precipitaţii Vânt Presiune Umiditate
    00:00 +14°C° 0.1 mm 0 m/s 736 mmHg 93%
    01:00 +14°C° 0.1 mm 0 m/s 735 mmHg 94%
    02:00 +15°C° 1 mm 1 m/s 735 mmHg 95%
    03:00 +15°C° 1 mm 1 m/s 735 mmHg 97%
    04:00 +15°C° 1 mm 1 m/s 735 mmHg 98%
    05:00 +15°C° 2.6 mm 1 m/s 735 mmHg 98%
    06:00 +15°C° 2.6 mm 1 m/s 735 mmHg 98%
    07:00 +15°C° 2.6 mm 2 m/s 735 mmHg 98%
    08:00 +15°C° 2.5 mm 2 m/s 735 mmHg 98%
    09:00 +14°C° 2.5 mm 3 m/s 735 mmHg 98%
    10:00 +13°C° 2.5 mm 3 m/s 735 mmHg 98%
    11:00 +13°C° 1.4 mm 4 m/s 735 mmHg 97%
    12:00 +13°C° 1.4 mm 4 m/s 734 mmHg 97%
    13:00 +12°C° 1.4 mm 5 m/s 734 mmHg 96%
    14:00 +11°C° 0.3 mm 6 m/s 734 mmHg 96%
    15:00 +11°C° 0.3 mm 6 m/s 735 mmHg 95%
    16:00 +11°C° 0.3 mm 7 m/s 735 mmHg 95%
    17:00 +11°C° 0.9 mm 6 m/s 735 mmHg 95%
    18:00 +11°C° 0.9 mm 6 m/s 735 mmHg 96%
    19:00 +12°C° 0.9 mm 5 m/s 736 mmHg 97%
    20:00 +12°C° 0.7 mm 5 m/s 736 mmHg 97%
    21:00 +12°C° 0.7 mm 5 m/s 737 mmHg 96%
    22:00 +12°C° 0.7 mm 5 m/s 737 mmHg 96%
    23:00 +10°C° 0.3 mm 5 m/s 738 mmHg 97%

    29 Mai, Miercuri

    Timp Temperatura Precipitaţii Vânt Presiune Umiditate
    00:00 +10°C° 0.3 mm 5 m/s 738 mmHg 97%
    01:00 +10°C° 0.3 mm 5 m/s 739 mmHg 97%
    02:00 +9°C° 0.2 mm 5 m/s 739 mmHg 96%
    03:00 +8°C° 0.2 mm 5 m/s 740 mmHg 95%
    04:00 +7°C° 0.2 mm 5 m/s 740 mmHg 94%
    05:00 +7°C° 0 mm 5 m/s 741 mmHg 92%
    06:00 +7°C° 0 mm 5 m/s 742 mmHg 89%
    07:00 +7°C° 0 mm 5 m/s 742 mmHg 87%
    08:00 +9°C° 0 mm 5 m/s 743 mmHg 81%
    09:00 +10°C° 0 mm 5 m/s 743 mmHg 75%
    10:00 +12°C° 0 mm 5 m/s 743 mmHg 69%
    11:00 +12°C° 0 mm 5 m/s 744 mmHg 67%
    12:00 +13°C° 0 mm 5 m/s 744 mmHg 66%
    13:00 +14°C° 0 mm 5 m/s 744 mmHg 64%
    14:00 +14°C° 0 mm 4 m/s 745 mmHg 63%
    15:00 +14°C° 0 mm 4 m/s 745 mmHg 63%
    16:00 +14°C° 0 mm 4 m/s 745 mmHg 63%
    17:00 +13°C° 0 mm 4 m/s 745 mmHg 67%
    18:00 +12°C° 0 mm 3 m/s 746 mmHg 72%
    19:00 +12°C° 0 mm 2 m/s 746 mmHg 76%
    20:00 +10°C° 0 mm 2 m/s 747 mmHg 78%
    21:00 +10°C° 0 mm 1 m/s 747 mmHg 81%
    22:00 +9°C° 0 mm 1 m/s 748 mmHg 83%
    23:00 +8°C° 0 mm 1 m/s 748 mmHg 85%

    30 Mai, Joi

    Timp Temperatura Precipitaţii Vânt Presiune Umiditate
    00:00 +8°C° 0 mm 1 m/s 748 mmHg 87%
    01:00 +7°C° 0 mm 1 m/s 748 mmHg 89%
    02:00 +7°C° 0 mm 1 m/s 748 mmHg 90%
    03:00 +6°C° 0 mm 1 m/s 748 mmHg 90%
    04:00 +6°C° 0 mm 1 m/s 748 mmHg 90%
    05:00 +7°C° 0 mm 0 m/s 749 mmHg 85%
    06:00 +9°C° 0 mm 0 m/s 749 mmHg 79%
    07:00 +11°C° 0 mm 0 m/s 749 mmHg 73%
    08:00 +12°C° 0 mm 0 m/s 748 mmHg 68%
    09:00 +14°C° 0 mm 1 m/s 748 mmHg 62%
    10:00 +16°C° 0 mm 1 m/s 748 mmHg 57%
    11:00 +18°C° 0 mm 1 m/s 748 mmHg 55%
    12:00 +19°C° 0 mm 1 m/s 747 mmHg 53%
    13:00 +20°C° 0 mm 1 m/s 747 mmHg 51%
    14:00 +20°C° 0 mm 1 m/s 746 mmHg 53%
    15:00 +19°C° 0 mm 1 m/s 746 mmHg 55%
    16:00 +19°C° 0 mm 1 m/s 745 mmHg 58%
    17:00 +18°C° 0 mm 1 m/s 745 mmHg 64%
    18:00 +16°C° 0 mm 1 m/s 745 mmHg 70%
    19:00 +15°C° 0 mm 2 m/s 745 mmHg 76%
    20:00 +14°C° 0 mm 2 m/s 745 mmHg 78%
    21:00 +12°C° 0 mm 2 m/s 745 mmHg 79%
    22:00 +10°C° 0 mm 2 m/s 745 mmHg 81%
    23:00 +10°C° 0 mm 2 m/s 745 mmHg 79%
    Arată mai mult